#timestamp,LO_Frequency,Hit,StdDev 
1525780815.3,286046998.9,N
1525780835.1,286046999.9,N
1525780855.9,286047002.8,N
1525780875.7,286046999.9,N
1525780895.6,286047000.3,N
1525780915.4,286047000.5,N
1525780935.2,286047002.7,N
1525780955.1,286046999.7,N
1525780956.0,286046999.7,N
1525780975.8,286047001.5,N
1525780995.6,286047001.8,N
1525781015.5,286046999.7,N
1525781035.3,286047001.7,N
1525781055.2,286047003.7,N
1525781075.9,286047000.1,N
1525781095.7,286047000.3,N
1525781115.6,286047002.3,N
1525781135.4,286047000.1,N
1525781155.3,286047000.5,N
1525781175.1,286047002.2,N
1525781176.0,286047002.2,N
1525781195.8,286047000.2,N
1525781215.7,286046999.9,N
1525781235.5,286047004.0,N
1525781255.3,286047003.8,N
1525781275.2,286047006.0,N
1525781295.0,286047001.3,N
1525781295.9,286047001.3,N
1525781315.8,286047002.0,N
1525781335.6,286047002.0,N
1525781355.4,286047003.0,N
1525781375.3,286047004.1,N
1525781395.1,286047003.9,N
1525781415.9,286047003.9,N
1525781435.7,286047003.7,N
1525781455.5,286047004.4,N
1525781475.4,286047001.7,N
1525781495.2,286047004.4,N
1525781515.0,286047004.2,N
1525781515.9,286047004.2,N
1525781535.8,286047004.1,N
1525781555.6,286047003.2,N
1525781575.5,286047004.2,N
1525781595.3,286047003.5,N
1525781615.1,286047001.5,N
1525781635.9,286047003.1,N
1525781655.7,286047003.5,N
1525781675.6,286047003.0,N
1525781695.4,286047002.9,N
1525781715.2,286047003.2,N
1525781735.1,286047005.1,Y
1525781736.0,286047005.1,P
1525781755.8,286047000.9,N
1525781775.6,286047000.3,N
1525781795.5,286047000.9,N
1525781815.3,286046999.7,N
1525781835.2,286047002.8,N
1525781855.9,286047000.3,N
1525781875.7,286046998.6,N
1525781895.6,286046996.9,N
1525781915.4,286046998.6,N
1525781935.3,286047000.9,N
1525781955.1,286047000.6,N
1525781956.0,286047000.6,N
1525781975.8,286046999.9,N
1525781995.7,286047000.7,N
1525782015.5,286047000.9,N
1525782035.3,286047001.1,N
1525782055.2,286046998.2,N
1525782075.0,286046999.9,N
1525782075.9,286046999.9,N
1525782095.8,286047002.1,N
1525782115.6,286047002.2,N
1525782135.4,286047002.3,N
1525782155.3,286047000.5,N
1525782175.1,286047000.3,N
1525782195.9,286047002.7,N
1525782215.7,286047001.0,N
1525782235.5,286047002.7,N
1525782255.4,286047004.3,N
1525782275.2,286047003.5,N
1525782295.1,286047001.3,N
1525782296.0,286047001.3,N
1525782315.8,286047002.8,N
1525782335.6,286047002.3,N
1525782355.5,286047004.0,N
1525782375.3,286047003.8,N
1525782395.1,286047003.2,N
1525782415.9,286047004.0,N
1525782435.7,286047005.6,Y
1525782455.6,286047003.2,P
1525782475.4,286047001.4,N
1525782495.2,286047001.6,N
1525782515.1,286047001.9,N
1525782516.0,286047001.9,N
1525782535.8,286047004.4,Y
1525782555.6,286047000.2,P
1525782575.5,286047000.3,N
1525782595.3,286047000.3,N
1525782615.2,286047000.2,N
1525782635.9,286047000.0,N
1525782655.7,286047000.0,N
1525782675.6,286047000.1,N
1525782695.4,286047001.0,N
1525782715.2,286046998.6,N
1525782735.1,286047001.0,N
1525782736.0,286047001.0,N
1525782755.8,286047001.0,N
1525782775.7,286046998.6,N
1525782795.5,286047000.8,N
1525782815.3,286046999.0,N
1525782835.2,286046996.5,Y
1525782855.0,286046996.7,P
1525782855.9,286046996.7,N
1525782875.8,286046997.7,N
1525782895.6,286046997.1,N
1525782915.4,286046997.1,N
1525782935.3,286046997.3,N
1525782955.1,286046997.2,N
1525782975.9,286046997.8,N
1525782995.7,286046997.9,N
1525783015.5,286046995.1,Y
1525783035.4,286046996.8,P
1525783055.2,286046996.7,P
1525783075.0,286046997.1,P
1525783076.0,286046997.1,Y
1525783095.8,286047002.8,P
1525783115.6,286047002.6,N
1525783135.5,286047000.1,N
1525783155.3,286046999.9,N
1525783175.1,286047000.0,N
1525783195.9,286047002.7,N
1525783215.7,286047000.1,N
1525783235.6,286047002.8,N
1525783255.4,286047002.8,N
1525783275.2,286047000.3,N
1525783295.1,286047000.7,N
1525783296.0,286047000.7,N
1525783315.8,286046999.9,N
1525783335.6,286047000.0,N
1525783355.5,286046998.3,N
1525783375.3,286047000.7,N
1525783395.2,286047000.3,N
1525783415.9,286047000.6,N
1525783435.7,286047000.0,N
1525783455.6,286046998.4,N
1525783475.4,286047001.1,N
1525783495.2,286047001.1,N
1525783515.1,286047000.6,N
1525783516.0,286047000.6,N
1525783535.8,286047000.5,N
1525783555.7,286047000.1,N
1525783575.5,286046999.9,N
1525783595.3,286047000.3,N
1525783615.2,286047000.8,N
1525783635.0,286047000.3,N
1525783635.9,286047000.3,N
1525783655.8,286046998.3,N
1525783675.6,286047000.9,N
1525783695.4,286046999.4,N
1525783715.3,286046999.4,N
1525783735.1,286046999.0,N
1525783755.8,286046998.3,N
1525783775.7,286046998.7,N
1525783795.5,286046999.6,N
1525783815.4,286046998.4,N
1525783835.2,286046999.1,N
1525783855.0,286046997.0,Y
1525783855.9,286046997.0,P
1525783875.8,286046997.9,N
1525783895.6,286046995.0,P
1525783915.5,286046997.4,N
1525783935.3,286046994.9,Y
1525783955.1,286046998.8,P
1525783975.9,286046999.8,N
1525783995.7,286047000.0,N
1525784015.5,286046999.9,N
1525784035.4,286047002.7,N
1525784055.2,286047002.0,N
1525784075.1,286047001.5,N
1525784076.0,286047001.5,N
1525784095.8,286047000.0,N
1525784115.6,286047000.0,N
1525784135.5,286047000.8,N
1525784155.3,286046999.9,N
1525784175.1,286046999.8,N
1525784195.9,286046999.8,N
1525784215.7,286047000.6,N
1525784235.6,286047002.8,N
1525784255.4,286046999.9,N
1525784275.2,286046999.8,N
1525784295.1,286047000.6,N
1525784296.0,286047000.6,N
1525784315.8,286046998.2,N
1525784335.7,286047000.6,N
1525784355.5,286047001.0,N
1525784375.3,286047000.9,N
1525784395.2,286047002.8,N
